BREEZE-M R/B, 50003

Orbit data source: Space-Track

BREEZE-M R/B, 50003 is space debris in HEO originally from a launch on Mon, 13 Dec 2021 UTC launched from the Tyuratam Missile And Space Complex (TTMTR). Debris objects in space refer to the collection of defunct objects orbiting the Earth. Examples of debris include non-operational satellites, rocket bodies, and fragments generated from explosions, collisions, or faulty payload assembly.

Not visible in the next 10 days
Identifier
50003, 2021-123C
Orbit
HEO
Country
Flag of CISCIS
Related business
Manufacturer
Khrunichev
Mission
Spacecraft
Bus & Motor
BRIZ, Unknown motor
Mass
~1,600 kg wet, 1,600 kg dry
Launch date (UTC)
2021-12-13 (5 years ago)
Launch vehicle
Unknown
Launch site
Tyuratam Missile And Space Complex (TTMTR)
Object type
Payload
Rocket body
Debris
Shape & HBR
Cyl, 2.0 m
Radar Cross Section
15.135 m², Large (>1 m²)

Expand to show TLE details & history
Last TLE update: 3 days ago

TLE from 3 days ago
0 BREEZE-M R/B
1 50003U 21123C   26170.63848053 -.00000140  00000-0  00000-0 0  9996
2 50003   5.8219  86.1414 4411133  55.2041 338.4693  1.07952616 17879
Epoch: 2026-06-19T15:19Z
TLE epoch observation values (Epoch: 2026-06-19T15:19:24.717Z)
Latitude
0.00001°
Longitude
-51.83455°
Altitude
19,465.173 km
Speed
4.574 km/s
True Right ascension
05h 43m 31s
True Declination
0° 00' 00"
Sunlit
Object was in daylight at epoch
Visualization orbit readout
Latitude
Unknown
Longitude
Unknown
Altitude
Unknown
Speed
Unknown
Apparent Right ascension
Unknown
Apparent Declination
Unknown
Sunlit
N/A
Visualization observer readout
Local Sidereal Time
21:34:18
Azimuth
Unknown
Elevation
Unknown
Doppler factor
Unknown
Orbital elements
Apogee altitude
51,470.654 km
Perigee altitude
16,056.546 km
Semi-major axis
40,141.737 km
Eccentricity
0.44111
Inclination
5.8219°
RAAN
86.1414°
Arg. of periapsis
55.2041°
True anomaly
304.05858°
Mean anomaly
338.4693°
Eccentric anomaly
323.40055°
Mean motion
0.26987 °/min
Orbital period
1,333.99 mins
BSTAR
0
Loading maneuver chart data...
Computing Atmospheric mass density...
Loading historical data...
Loading historical data...
Loading historical data...
Loading historical data...
Loading historical data...
Loading historical data...
Loading historical data...
Other satellites on launch #123 in the year 2021 (2021-12-13 UTC)

Documentation

Showing up to 5 results
|